[TLELIST] Archives

 

[list_settings.list_name] Current TLEs

January 6th 2010 PST

HST 1 20580U 90037B 10003.07465982 .00000330 00000-0 12489-4 0 4976 2 20580 028.4706 237.6697 0003460 245.1077 114.9201 15.00874082879910 ISS (ZARYA) 1 25544U 98067A 10005.41094839 .00009404 00000-0 60114-4 0 3115 2 25544 051.6465 347.0925 0007826 147.8940 331.8691 15.77163397637821 CXO 1 25867U 99040B 10002.45833333 -.00000087 00000-0 10000-3 0 4125 2 25867 066.3270 061.3427 7891244 275.2183 357.5720 00.37807115 5769 ____________________________________________________________________ These 2-Line ...Continue Reading

[list_settings.list_name] Current TLEs

January 5th 2010 PST

HST 1 20580U 90037B 10003.07465982 .00000330 00000-0 12489-4 0 4976 2 20580 028.4706 237.6697 0003460 245.1077 114.9201 15.00874082879910 ISS (ZARYA) 1 25544U 98067A 10004.40292252 .00008531 00000-0 54964-4 0 3040 2 25544 051.6461 352.2931 0007950 144.7962 007.7716 15.77139774637661 CXO 1 25867U 99040B 10002.45833333 -.00000087 00000-0 10000-3 0 4125 2 25867 066.3270 061.3427 7891244 275.2183 357.5720 00.37807115 5769 ____________________________________________________________________ These 2-Line ...Continue Reading

[list_settings.list_name] Current TLEs

January 4th 2010 PST

HST 1 20580U 90037B 10003.07465982 .00000330 00000-0 12489-4 0 4976 2 20580 028.4706 237.6697 0003460 245.1077 114.9201 15.00874082879910 ISS (ZARYA) 1 25544U 98067A 10003.44971964 .00008175 00000-0 52888-4 0 2986 2 25544 051.6467 357.2093 0007870 140.1375 356.7948 15.77120914637514 CXO 1 25867U 99040B 10002.45833333 -.00000087 00000-0 10000-3 0 4125 2 25867 066.3270 061.3427 7891244 275.2183 357.5720 00.37807115 5769 ____________________________________________________________________ These 2-Line ...Continue Reading

[list_settings.list_name] Current TLEs

January 3rd 2010 PST

HST 1 20580U 90037B 09365.14879106 .00000353 00000-0 14235-4 0 4965 2 20580 028.4713 256.7658 0003382 213.8468 146.1910 15.00873205879477 ISS (ZARYA) 1 25544U 98067A 10002.37499484 .00008337 00000-0 53897-4 0 2924 2 25544 051.6461 002.7532 0007899 136.3273 014.6239 15.77102299637343 CXO 1 25867U 99040B 10002.45833333 -.00000087 00000-0 10000-3 0 4125 2 25867 066.3270 061.3427 7891244 275.2183 357.5720 00.37807115 5769 ____________________________________________________________________ These 2-Line ...Continue Reading

[list_settings.list_name] Current TLEs

January 2nd 2010 PST

HST 1 20580U 90037B 09365.14879106 .00000353 00000-0 14235-4 0 4965 2 20580 028.4713 256.7658 0003382 213.8468 146.1910 15.00873205879477 ISS (ZARYA) 1 25544U 98067A 10001.42621145 .00008682 00000-0 55995-4 0 2856 2 25544 051.6471 007.6471 0007876 133.3099 027.2507 15.77086576637198 CXO 1 25867U 99040B 09364.79166667 -.00000076 00000-0 10000-3 0 4117 2 25867 066.3242 061.4936 7881830 275.2308 354.4783 00.37795045 5755 ____________________________________________________________________ These 2-Line ...Continue Reading

[list_settings.list_name] Current TLEs

January 1st 2010 PST

HST 1 20580U 90037B 09365.14879106 .00000353 00000-0 14235-4 0 4965 2 20580 028.4713 256.7658 0003382 213.8468 146.1910 15.00873205879477 ISS (ZARYA) 1 25544U 98067A 09365.40988071 .00009379 00000-0 60205-4 0 2785 2 25544 051.6462 012.8898 0007919 129.8493 016.6224 15.77070060637037 CXO 1 25867U 99040B 09364.79166667 -.00000076 00000-0 10000-3 0 4117 2 25867 066.3242 061.4936 7881830 275.2308 354.4783 00.37795045 5755 ____________________________________________________________________ These 2-Line ...Continue Reading

[list_settings.list_name] Current TLEs

December 31st 2009 PST

HST 1 20580U 90037B 09364.15133672 .00000396 00000-0 17536-4 0 4959 2 20580 028.4712 263.2799 0003447 203.3777 156.6701 15.00873172879325 ISS (ZARYA) 1 25544U 98067A 09364.45936236 .00010460 00000-0 66715-4 0 2746 2 25544 051.6454 017.7915 0007941 127.4369 018.9088 15.77054959636887 CXO 1 25867U 99040B 09364.79166667 -.00000076 00000-0 10000-3 0 4117 2 25867 066.3242 061.4936 7881830 275.2308 354.4783 00.37795045 5755 ____________________________________________________________________ These 2-Line ...Continue Reading

[list_settings.list_name] Current TLEs

December 30th 2009 PST

HST 1 20580U 90037B 09362.15642654 .00000438 00000-0 20736-4 0 4944 2 20580 028.4715 276.3076 0003494 182.0986 177.9610 15.00872522879028 ISS (ZARYA) 1 25544U 98067A 09363.37936942 .00011438 00000-0 72631-4 0 2672 2 25544 051.6452 023.3603 0007818 124.1039 006.6048 15.77034694636719 CXO 1 25867U 99040B 09362.16666667 .00000037 00000-0 10000-3 0 4106 2 25867 066.3137 061.6045 7878883 275.2703 357.0245 00.37801464 5748 ____________________________________________________________________ These 2-Line ...Continue Reading

[list_settings.list_name] Current TLEs

December 29th 2009 PST

HST 1 20580U 90037B 09359.03106399 .00000424 00000-0 19702-4 0 4933 2 20580 028.4715 296.7007 0003494 148.8817 211.2004 15.00870797878559 ISS (ZARYA) 1 25544U 98067A 09362.37456019 .00012167 00000-0 77071-4 0 2609 2 25544 051.6445 028.5433 0007921 120.7783 061.4974 15.77013121636553 CXO 1 25867U 99040B 09362.16666667 .00000037 00000-0 10000-3 0 4106 2 25867 066.3137 061.6045 7878883 275.2703 357.0245 00.37801464 5748 ____________________________________________________________________ These 2-Line ...Continue Reading

[list_settings.list_name] Current TLEs

December 28th 2009 PST

HST 1 20580U 90037B 09359.03106399 .00000424 00000-0 19702-4 0 4933 2 20580 028.4715 296.7007 0003494 148.8817 211.2004 15.00870797878559 ISS (ZARYA) 1 25544U 98067A 09361.34050903 .00013181 00000-0 83228-4 0 2548 2 25544 051.6439 033.8757 0007980 118.0578 309.7463 15.76990488636393 CXO 1 25867U 99040B 09362.16666667 .00000037 00000-0 10000-3 0 4106 2 25867 066.3137 061.6045 7878883 275.2703 357.0245 00.37801464 5748 ____________________________________________________________________ These 2-Line ...Continue Reading
  • This mailing list is a public mailing list - anyone may join or leave, at any time.
  • This mailing list is announce-only.

International Space Station (ISS) / Hubble Space Telescope (HST) / Chandra X-Ray Observatory Orbital Data via EMAIL

Privacy Policy:

Private list